| time (UTC) | temp F | wind direction | speed knots | gust knots | rain 1hr in | rain 24hr in | rain mn in | humidity % | barometer mb |
| 20260507023354 | 54 | 347 | 3.5 | 3.5 | 0.00 | 0.00 | 0.79 | 97 | 1016.2 |
| 20260507022710 | 54 | 118 | 0.0 | 0.0 | 0.00 | 0.00 | 0.79 | 97 | 1016.2 |
| 20260507022117 | 54 | 118 | 0.0 | 0.0 | 0.00 | 0.00 | 0.79 | 97 | 1015.9 |
| 20260507021541 | 54 | 118 | 0.0 | 0.0 | 0.00 | 0.00 | 0.79 | 97 | 1015.9 |
| 20260507020939 | 54 | 118 | 0.0 | 0.0 | 0.00 | 0.00 | 0.79 | 96 | 1015.5 |
| 20260507020318 | 54 | 118 | 0.0 | 0.0 | 0.00 | 0.00 | 0.79 | 96 | 1015.2 |
| 20260507015728 | 54 | 118 | 0.0 | 0.0 | 0.00 | 0.00 | 0.79 | 96 | 1015.5 |
| 20260507015145 | 54 | 118 | 0.0 | 0.0 | 0.00 | 0.00 | 0.79 | 96 | 1015.5 |
| 20260507014513 | 55 | 118 | 0.0 | 0.0 | 0.00 | 0.00 | 0.79 | 96 | 1015.5 |
| 20260507013930 | 55 | 118 | 0.0 | 0.0 | 0.00 | 0.00 | 0.79 | 96 | 1015.5 |
| 20260507013354 | 55 | 118 | 0.0 | 0.0 | 0.00 | 0.00 | 0.79 | 96 | 1015.2 |
| 20260507012144 | 55 | 118 | 0.0 | 0.0 | 0.00 | 0.00 | 0.79 | 95 | 1015.2 |
| 20260507011532 | 55 | 118 | 0.0 | 0.0 | 0.00 | 0.00 | 0.79 | 95 | 1014.9 |
| 20260507010953 | 55 | 118 | 0.0 | 0.0 | 0.00 | 0.00 | 0.79 | 95 | 1015.2 |
| 20260507010329 | 55 | 118 | 0.0 | 0.0 | 0.00 | 0.00 | 0.79 | 95 | 1014.9 |
| 20260507005135 | 55 | 118 | 0.0 | 0.0 | 0.00 | 0.00 | 0.79 | 94 | 1014.9 |
| 20260507004543 | 55 | 118 | 0.0 | 0.0 | 0.00 | 0.00 | 0.79 | 94 | 1015.2 |
| 20260507003345 | 56 | 118 | 0.0 | 0.0 | 0.00 | 0.00 | 0.79 | 93 | 1014.9 |
| 20260507002729 | 56 | 118 | 0.0 | 0.0 | 0.00 | 0.00 | 0.79 | 93 | 1014.5 |
| 20260507001548 | 56 | 118 | 0.0 | 0.0 | 0.00 | 0.00 | 0.79 | 93 | 1014.2 |
| 20260507000314 | 56 | 118 | 0.0 | 0.0 | 0.00 | 0.00 | 0.79 | 91 | 1014.2 |
| 20260506235729 | 56 | 118 | 0.0 | 0.0 | 0.00 | 0.00 | 0.79 | 91 | 1014.5 |
| 20260506235133 | 56 | 119 | 0.9 | 0.9 | 0.00 | 0.00 | 0.79 | 91 | 1014.5 |
| 20260506234523 | 56 | 118 | 0.9 | 0.9 | 0.00 | 0.00 | 0.79 | 91 | 1013.8 |
| 20260506233939 | 57 | 121 | 1.7 | 1.7 | 0.00 | 0.00 | 0.79 | 91 | 1014.2 |
| 20260506233351 | 57 | 122 | 0.9 | 0.9 | 0.00 | 0.00 | 0.79 | 90 | 1014.5 |
| 20260506232743 | 57 | 122 | 0.9 | 1.7 | 0.00 | 0.00 | 0.79 | 89 | 1014.9 |
| 20260506232149 | 57 | 136 | 0.9 | 0.9 | 0.00 | 0.00 | 0.79 | 88 | 1014.9 |
| 20260506231525 | 57 | 136 | 0.0 | 0.9 | 0.00 | 0.00 | 0.79 | 89 | 1014.9 |
| 20260506230932 | 57 | 136 | 0.9 | 0.9 | 0.00 | 0.00 | 0.79 | 88 | 1014.5 |
| 20260506230329 | 58 | 176 | 0.0 | 0.0 | 0.00 | 0.00 | 0.79 | 88 | 1014.5 |
| 20260506225711 | 58 | 255 | 0.0 | 0.0 | 0.00 | 0.00 | 0.79 | 87 | 1014.5 |
| 20260506225110 | 58 | 255 | 0.9 | 0.9 | 0.00 | 0.00 | 0.79 | 87 | 1014.5 |
| 20260506224517 | 58 | 256 | 0.9 | 0.9 | 0.00 | 0.00 | 0.79 | 86 | 1014.5 |
| 20260506223932 | 59 | 255 | 0.9 | 0.9 | 0.00 | 0.00 | 0.79 | 84 | 1014.9 |
| 20260506223327 | 59 | 256 | 0.0 | 0.0 | 0.00 | 0.00 | 0.79 | 78 | 1014.5 |
| 20260506222722 | 58 | 256 | 0.0 | 0.0 | 0.00 | 0.00 | 0.79 | 77 | 1014.5 |
| 20260506222145 | 58 | 256 | 0.0 | 0.0 | 0.00 | 0.00 | 0.79 | 84 | 1014.9 |
| 20260506221515 | 58 | 256 | 0.0 | 0.0 | 0.00 | 0.00 | 0.79 | 83 | 1014.5 |
| 20260506220918 | 58 | 256 | 0.9 | 0.9 | 0.00 | 0.00 | 0.79 | 84 | 1014.2 |
| 20260506220343 | 59 | 256 | 0.9 | 0.0 | 0.00 | 0.00 | 0.79 | 80 | 1014.2 |
| 20260506215738 | 59 | 256 | 0.0 | 0.9 | 0.00 | 0.00 | 0.79 | 78 | 1014.2 |
| 20260506215142 | 59 | 256 | 0.0 | 0.0 | 0.00 | 0.00 | 0.79 | 77 | 1014.2 |
| 20260506214549 | 59 | 256 | 0.0 | 0.9 | 0.00 | 0.00 | 0.79 | 74 | 1013.8 |
| 20260506213317 | 59 | 227 | 0.9 | 0.9 | 0.00 | 0.00 | 0.79 | 75 | 1013.8 |
| 20260506212713 | 58 | 224 | 0.9 | 1.7 | 0.00 | 0.00 | 0.79 | 76 | 1014.2 |
| 20260506212127 | 59 | 226 | 2.6 | 2.6 | 0.00 | 0.00 | 0.79 | 75 | 1014.2 |
| 20260506210930 | 60 | 225 | 1.7 | 2.6 | 0.00 | 0.00 | 0.79 | 74 | 1013.8 |
| 20260506210347 | 60 | 346 | 0.9 | 2.6 | 0.00 | 0.00 | 0.79 | 72 | 1013.8 |
| 20260506204531 | 59 | 42 | 0.9 | 0.9 | 0.00 | 0.00 | 0.79 | 73 | 1013.8 |
| 20260506203311 | 59 | 233 | 0.9 | 2.6 | 0.00 | 0.00 | 0.79 | 74 | 1013.8 |
| 20260506202713 | 59 | 253 | 0.9 | 0.9 | 0.00 | 0.00 | 0.79 | 74 | 1013.5 |
| 20260506201533 | 59 | 94 | 0.9 | 1.7 | 0.00 | 0.00 | 0.79 | 76 | 1013.5 |
| 20260506200314 | 58 | 86 | 1.7 | 1.7 | 0.00 | 0.00 | 0.79 | 77 | 1013.8 |
| 20260506195752 | 58 | 16 | 1.7 | 1.7 | 0.00 | 0.00 | 0.79 | 78 | 1013.8 |
| 20260506194536 | 58 | 40 | 1.7 | 1.7 | 0.00 | 0.00 | 0.79 | 77 | 1013.5 |
| 20260506193953 | 58 | 32 | 2.6 | 5.2 | 0.00 | 0.00 | 0.79 | 78 | 1013.8 |
| 20260506193353 | 57 | 220 | 0.9 | 1.7 | 0.00 | 0.00 | 0.79 | 81 | 1013.8 |
| 20260506192743 | 57 | 237 | 1.7 | 2.6 | 0.00 | 0.00 | 0.79 | 82 | 1013.8 |
| 20260506192132 | 57 | 358 | 0.9 | 1.7 | 0.00 | 0.00 | 0.79 | 84 | 1013.8 |
| 20260506191543 | 57 | 50 | 2.6 | 5.2 | 0.00 | 0.00 | 0.79 | 77 | 1013.8 |
| 20260506190913 | 58 | 68 | 1.7 | 6.1 | 0.00 | 0.00 | 0.79 | 77 | 1013.5 |
| 20260506190341 | 57 | 240 | 0.0 | 2.6 | 0.00 | 0.00 | 0.79 | 82 | 1013.8 |
| 20260506185719 | 57 | 339 | 4.3 | 5.2 | 0.00 | 0.00 | 0.79 | 80 | 1013.5 |
| 20260506184536 | 57 | 332 | 0.9 | 2.6 | 0.00 | 0.00 | 0.79 | 82 | 1013.8 |
| 20260506183920 | 56 | 112 | 0.9 | 2.6 | 0.00 | 0.00 | 0.79 | 83 | 1013.5 |
| 20260506183330 | 57 | 45 | 1.7 | 5.2 | 0.00 | 0.00 | 0.79 | 81 | 1013.8 |
| 20260506182741 | 56 | 187 | 0.9 | 1.7 | 0.00 | 0.00 | 0.79 | 84 | 1013.8 |
| 20260506181541 | 55 | 349 | 3.5 | 3.5 | 0.00 | 0.00 | 0.79 | 85 | 1013.8 |
| 20260506180936 | 56 | 9 | 2.6 | 2.6 | 0.00 | 0.00 | 0.79 | 84 | 1013.8 |
| 20260506180354 | 56 | 255 | 1.7 | 1.7 | 0.00 | 0.00 | 0.79 | 84 | 1013.8 |
| 20260506175748 | 56 | 250 | 2.6 | 5.2 | 0.00 | 0.00 | 0.79 | 85 | 1013.8 |
| 20260506175127 | 56 | 231 | 1.7 | 1.7 | 0.00 | 0.00 | 0.79 | 88 | 1013.8 |
| 20260506174531 | 55 | 218 | 2.6 | 3.5 | 0.00 | 0.00 | 0.79 | 87 | 1013.8 |
| 20260506173943 | 54 | 44 | 2.6 | 6.1 | 0.00 | 0.00 | 0.79 | 88 | 1013.8 |
| 20260506173318 | 53 | 344 | 2.6 | 5.2 | 0.00 | 0.00 | 0.79 | 90 | 1013.8 |
| 20260506172712 | 53 | 225 | 1.7 | 3.5 | 0.00 | 0.00 | 0.79 | 91 | 1013.8 |
| 20260506172141 | 53 | 351 | 4.3 | 7.8 | 0.00 | 0.00 | 0.79 | 89 | 1013.8 |
| 20260506170953 | 53 | 235 | 1.7 | 5.2 | 0.00 | 0.00 | 0.79 | 92 | 1013.8 |
| 20260506170310 | 53 | 354 | 3.5 | 3.5 | 0.00 | 0.00 | 0.79 | 91 | 1013.8 |
| 20260506163946 | 53 | 252 | 5.2 | 6.1 | 0.00 | 0.00 | 0.79 | 93 | 1013.8 |
| 20260506163334 | 53 | 208 | 1.7 | 2.6 | 0.00 | 0.00 | 0.79 | 93 | 1013.8 |
| 20260506162749 | 53 | 313 | 1.7 | 8.7 | 0.00 | 0.00 | 0.79 | 92 | 1013.8 |
| 20260506162115 | 53 | 350 | 7.0 | 7.8 | 0.00 | 0.00 | 0.79 | 92 | 1013.8 |
| 20260506161546 | 53 | 264 | 0.9 | 3.5 | 0.00 | 0.00 | 0.79 | 93 | 1013.5 |
| 20260506160934 | 53 | 325 | 5.2 | 7.0 | 0.00 | 0.00 | 0.79 | 93 | 1013.5 |
| 20260506160351 | 53 | 333 | 3.5 | 2.6 | 0.00 | 0.00 | 0.79 | 94 | 1013.5 |
| 20260506155712 | 53 | 240 | 2.6 | 3.5 | 0.00 | 0.00 | 0.79 | 95 | 1013.2 |
| 20260506155128 | 53 | 215 | 1.7 | 3.5 | 0.00 | 0.00 | 0.79 | 95 | 1013.2 |
| 20260506154542 | 53 | 226 | 1.7 | 1.7 | 0.00 | 0.00 | 0.79 | 96 | 1012.8 |
| 20260506153930 | 53 | 218 | 1.7 | 2.6 | 0.00 | 0.00 | 0.79 | 95 | 1013.2 |
| 20260506153334 | 53 | 174 | 1.7 | 1.7 | 0.00 | 0.00 | 0.79 | 95 | 1012.8 |
| 20260506152733 | 53 | 122 | 0.9 | 0.9 | 0.00 | 0.00 | 0.78 | 95 | 1012.8 |
| 20260506151533 | 52 | 132 | 0.0 | 0.9 | 0.00 | 0.00 | 0.78 | 95 | 1012.5 |
| 20260506150933 | 52 | 346 | 3.5 | 3.5 | 0.00 | 0.00 | 0.78 | 94 | 1012.8 |
| 20260506150311 | 52 | 325 | 3.5 | 6.1 | 0.00 | 0.00 | 0.78 | 93 | 1012.5 |
| 20260506145750 | 53 | 6 | 0.9 | 0.9 | 0.00 | 0.00 | 0.78 | 94 | 1012.5 |
| 20260506145133 | 53 | 225 | 0.0 | 0.9 | 0.00 | 0.00 | 0.78 | 94 | 1012.5 |
| 20260506144538 | 54 | 147 | 0.9 | 0.9 | 0.00 | 0.00 | 0.78 | 95 | 1012.5 |
| 20260506143929 | 54 | 351 | 1.7 | 3.5 | 0.00 | 0.00 | 0.78 | 94 | 1012.1 |
| 20260506143317 | 54 | 243 | 1.7 | 3.5 | 0.00 | 0.00 | 0.78 | 94 | 1012.1 |
| 20260506142716 | 55 | 265 | 4.3 | 7.0 | 0.00 | 0.00 | 0.78 | 93 | 1012.1 |
| 20260506142117 | 57 | 239 | 5.2 | 7.8 | 0.00 | 0.00 | 0.78 | 91 | 1011.8 |
| 20260506141523 | 60 | 324 | 5.2 | 7.0 | 0.00 | 0.00 | 0.77 | 95 | 1011.1 |
| 20260506140935 | 60 | 247 | 7.0 | 7.8 | 0.00 | 0.00 | 0.75 | 95 | 1010.8 |
| 20260506140343 | 60 | 251 | 4.3 | 5.2 | 0.00 | 0.00 | 0.75 | 95 | 1010.8 |
| 20260506135734 | 60 | 237 | 4.3 | 7.8 | 0.00 | 0.00 | 0.75 | 94 | 1010.4 |
| 20260506135139 | 60 | 253 | 5.2 | 9.6 | 0.00 | 0.00 | 0.75 | 94 | 1010.4 |
| 20260506134512 | 60 | 261 | 5.2 | 5.2 | 0.00 | 0.00 | 0.75 | 94 | 1010.1 |
| 20260506133920 | 60 | 241 | 3.5 | 7.8 | 0.00 | 0.00 | 0.75 | 95 | 1010.4 |
| 20260506133350 | 60 | 246 | 5.2 | 6.1 | 0.00 | 0.00 | 0.75 | 95 | 1010.1 |
| 20260506132744 | 60 | 254 | 7.0 | 7.0 | 0.00 | 0.00 | 0.75 | 95 | 1010.1 |
| 20260506132120 | 59 | 230 | 4.3 | 7.0 | 0.00 | 0.00 | 0.75 | 96 | 1010.1 |
| 20260506131514 | 59 | 240 | 3.5 | 5.2 | 0.00 | 0.00 | 0.75 | 96 | 1010.1 |
| 20260506130920 | 59 | 220 | 0.9 | 6.1 | 0.00 | 0.00 | 0.75 | 96 | 1010.1 |
| 20260506125727 | 59 | 248 | 2.6 | 3.5 | 0.00 | 0.00 | 0.75 | 96 | 1010.1 |
| 20260506125146 | 59 | 237 | 4.3 | 5.2 | 0.00 | 0.00 | 0.75 | 96 | 1010.4 |
| 20260506124511 | 59 | 235 | 3.5 | 5.2 | 0.00 | 0.00 | 0.75 | 97 | 1010.1 |
| 20260506123932 | 59 | 244 | 3.5 | 5.2 | 0.00 | 0.00 | 0.75 | 97 | 1010.1 |
| 20260506123320 | 59 | 233 | 2.6 | 3.5 | 0.00 | 0.00 | 0.75 | 97 | 1010.4 |
| 20260506122715 | 58 | 238 | 3.5 | 5.2 | 0.00 | 0.00 | 0.75 | 97 | 1009.8 |
| 20260506122149 | 58 | 240 | 4.3 | 5.2 | 0.00 | 0.00 | 0.75 | 97 | 1009.8 |
| 20260506121518 | 58 | 221 | 1.7 | 2.6 | 0.00 | 0.00 | 0.75 | 98 | 1009.8 |
| 20260506120310 | 58 | 227 | 2.6 | 2.6 | 0.00 | 0.00 | 0.75 | 98 | 1009.8 |
| 20260506115715 | 58 | 226 | 0.9 | 2.6 | 0.00 | 0.00 | 0.75 | 98 | 1009.8 |
| 20260506115122 | 58 | 237 | 3.5 | 3.5 | 0.00 | 0.00 | 0.75 | 98 | 1010.1 |
| 20260506114533 | 58 | 188 | 1.7 | 1.7 | 0.00 | 0.00 | 0.74 | 98 | 1009.4 |
| 20260506113948 | 58 | 187 | 0.0 | 0.9 | 0.00 | 0.00 | 0.74 | 98 | 1009.8 |
| 20260506112733 | 58 | 187 | 0.0 | 0.9 | 0.00 | 0.00 | 0.73 | 98 | 1009.8 |
| 20260506111515 | 58 | 144 | 0.0 | 0.0 | 0.00 | 0.00 | 0.73 | 97 | 1009.4 |
| 20260506110913 | 57 | 144 | 0.0 | 0.0 | 0.00 | 0.00 | 0.72 | 97 | 1009.4 |
| 20260506105711 | 57 | 145 | 0.9 | 0.9 | 0.00 | 0.00 | 0.70 | 97 | 1009.4 |
| 20260506105146 | 57 | 144 | 0.0 | 0.0 | 0.00 | 0.00 | 0.69 | 97 | 1009.4 |
| 20260506103921 | 57 | 144 | 0.0 | 0.0 | 0.00 | 0.00 | 0.66 | 97 | 1009.4 |
| 20260506103351 | 57 | 144 | 0.0 | 0.0 | 0.00 | 0.00 | 0.65 | 97 | 1009.4 |
| 20260506102708 | 57 | 144 | 0.0 | 0.0 | 0.00 | 0.00 | 0.64 | 97 | 1009.4 |
| 20260506102109 | 57 | 144 | 0.0 | 0.0 | 0.00 | 0.00 | 0.63 | 97 | 1009.4 |
| 20260506100950 | 57 | 144 | 0.9 | 1.7 | 0.00 | 0.00 | 0.62 | 97 | 1009.4 |
| 20260506095711 | 57 | 125 | 0.0 | 0.0 | 0.00 | 0.00 | 0.59 | 97 | 1009.4 |
| 20260506095149 | 57 | 125 | 0.0 | 0.9 | 0.00 | 0.00 | 0.57 | 97 | 1009.4 |
| 20260506094538 | 57 | 125 | 0.0 | 0.9 | 0.00 | 0.00 | 0.57 | 97 | 1009.4 |
| 20260506093321 | 57 | 126 | 0.0 | 0.9 | 0.00 | 0.00 | 0.56 | 96 | 1009.4 |
| 20260506092747 | 57 | 126 | 0.0 | 0.0 | 0.00 | 0.00 | 0.55 | 96 | 1009.4 |
| 20260506092113 | 57 | 125 | 0.9 | 0.9 | 0.00 | 0.00 | 0.55 | 96 | 1009.4 |
| 20260506090323 | 57 | 154 | 0.9 | 0.9 | 0.00 | 0.00 | 0.51 | 96 | 1009.4 |
| 20260506085736 | 57 | 160 | 1.7 | 1.7 | 0.00 | 0.00 | 0.48 | 96 | 1009.4 |
| 20260506085114 | 57 | 161 | 0.0 | 0.9 | 0.00 | 0.00 | 0.47 | 96 | 1009.4 |
| 20260506083926 | 57 | 128 | 1.7 | 1.7 | 0.00 | 0.00 | 0.45 | 95 | 1009.8 |
| 20260506083337 | 58 | 126 | 0.0 | 0.0 | 0.00 | 0.00 | 0.43 | 95 | 1010.1 |
| 20260506082737 | 58 | 126 | 0.9 | 1.7 | 0.00 | 0.00 | 0.41 | 95 | 1009.8 |
| 20260506082142 | 58 | 118 | 0.0 | 0.9 | 0.00 | 0.00 | 0.35 | 95 | 1009.8 |
| 20260506081514 | 58 | 214 | 0.0 | 0.9 | 0.00 | 0.00 | 0.32 | 94 | 1010.1 |
| 20260506080930 | 58 | 231 | 0.9 | 2.6 | 0.00 | 0.00 | 0.25 | 94 | 1010.1 |
| 20260506080318 | 58 | 189 | 0.0 | 0.9 | 0.00 | 0.00 | 0.20 | 94 | 1010.4 |
| 20260506073309 | 58 | 208 | 0.0 | 0.9 | 0.00 | 0.00 | 0.07 | 91 | 1009.4 |
| 20260506072709 | 59 | 208 | 0.0 | 0.9 | 0.00 | 0.00 | 0.07 | 90 | 1009.4 |
| 20260506072143 | 59 | 226 | 3.5 | 3.5 | 0.00 | 0.00 | 0.07 | 88 | 1009.8 |
| 20260506071550 | 59 | 250 | 5.2 | 6.1 | 0.00 | 0.00 | 0.06 | 88 | 1009.8 |
| 20260506070908 | 59 | 217 | 1.7 | 1.7 | 0.00 | 0.00 | 0.04 | 88 | 1009.4 |
| 20260506070330 | 60 | 218 | 1.7 | 3.5 | 0.00 | 0.00 | 0.04 | 86 | 1009.4 |
| 20260506062127 | 57 | 106 | 0.0 | 0.0 | 0.00 | 0.00 | 0.02 | 95 | 1009.4 |
| 20260506061510 | 57 | 106 | 1.7 | 1.7 | 0.00 | 0.00 | 0.02 | 95 | 1009.4 |
| 20260506060342 | 57 | 105 | 1.7 | 1.7 | 0.00 | 0.00 | 0.02 | 95 | 1009.4 |
| 20260506050949 | 58 | 105 | 0.9 | 0.9 | 0.00 | 0.00 | 0.00 | 91 | 1010.8 |
| 20260506050336 | 58 | 105 | 0.0 | 0.0 | 0.00 | 0.00 | 0.00 | 90 | 1010.8 |
| 20260506044516 | 58 | 105 | 1.7 | 1.7 | 0.00 | 0.00 | 0.00 | 91 | 1010.8 |
| 20260506043920 | 58 | 105 | 1.7 | 0.9 | 0.00 | 0.00 | 0.00 | 91 | 1010.4 |
| 20260506042725 | 58 | 105 | 0.0 | 0.0 | 0.00 | 0.00 | 0.00 | 90 | 1011.1 |
| 20260506042128 | 58 | 105 | 0.9 | 1.7 | 0.00 | 0.00 | 0.00 | 89 | 1010.8 |
| 20260506041543 | 58 | 105 | 0.0 | 0.9 | 0.00 | 0.00 | 0.00 | 90 | 1011.1 |
| 20260506040349 | 58 | 105 | 0.0 | 0.0 | 0.00 | 0.00 | 0.00 | 89 | 1010.8 |
| 20260506035712 | 59 | 105 | 0.9 | 0.9 | 0.00 | 0.00 | 0.00 | 87 | 1010.8 |
| 20260506035141 | 59 | 105 | 0.0 | 0.9 | 0.00 | 0.00 | 0.00 | 85 | 1010.8 |
| 20260506033949 | 59 | 105 | 0.9 | 2.6 | 0.00 | 0.00 | 0.00 | 85 | 1010.8 |
| 20260506033317 | 59 | 113 | 0.9 | 1.7 | 0.00 | 0.00 | 0.00 | 82 | 1011.1 |
| 20260506032715 | 59 | 128 | 0.0 | 0.9 | 0.00 | 0.00 | 0.00 | 84 | 1011.1 |
| 20260506032147 | 60 | 128 | 0.9 | 0.9 | 0.00 | 0.00 | 0.00 | 82 | 1011.1 |
| 20260506031550 | 60 | 128 | 0.0 | 0.0 | 0.00 | 0.00 | 0.00 | 79 | 1010.8 |
| 20260506030915 | 60 | 129 | 0.0 | 0.9 | 0.00 | 0.00 | 0.00 | 80 | 1010.8 |
| 20260506030347 | 61 | 107 | 0.0 | 0.9 | 0.00 | 0.00 | 0.00 | 75 | 1011.1 |
| 20260506025746 | 61 | 107 | 3.5 | 3.5 | 0.00 | 0.00 | 0.00 | 74 | 1010.8 |
| 20260506025129 | 62 | 119 | 1.7 | 1.7 | 0.00 | 0.00 | 0.00 | 71 | 1011.1 |
| 20260506024518 | 62 | 218 | 0.0 | 0.0 | 0.00 | 0.00 | 0.00 | 70 | 1011.5 |
| 20260506023916 | 62 | 218 | 0.0 | 0.0 | 0.00 | 0.00 | 0.00 | 70 | 1011.5 |